Wetterdaten: Mittwoch, 18.02.2015
Datum Zeit Temp. A. Feuchte A. Luftdruck Regen Wind Richtung Richtung Sonnenschein UV Solar Windben
18.02.2015 00:00 3,4 C 92 % 1039,6 hPa 0,0 mm 0,0 km/h (0 Bft) N 0 0 min 0 UV-I 0 W/m 0,0 km/h (0 Bft)
18.02.2015 00:10 3,4 C 92 % 1039,7 hPa 0,0 mm 0,0 km/h (0 Bft) N 0 0 min 0 UV-I 0 W/m 0,0 km/h (0 Bft)
18.02.2015 00:20 3,4 C 92 % 1039,6 hPa 0,0 mm 0,0 km/h (0 Bft) N 0 0 min 0 UV-I 0 W/m 0,0 km/h (0 Bft)
18.02.2015 00:30 3,4 C 92 % 1039,7 hPa 0,0 mm 0,0 km/h (0 Bft) N 0 0 min 0 UV-I 0 W/m 0,0 km/h (0 Bft)
18.02.2015 00:40 3,4 C 92 % 1039,7 hPa 0,0 mm 0,0 km/h (0 Bft) N 0 0 min 0 UV-I 0 W/m 0,0 km/h (0 Bft)
18.02.2015 00:50 3,4 C 92 % 1039,6 hPa 0,0 mm 0,0 km/h (0 Bft) W 270 0 min 0 UV-I 0 W/m 1,6 km/h (1 Bft)
18.02.2015 01:00 3,4 C 92 % 1039,5 hPa 0,0 mm 0,0 km/h (0 Bft) W 270 0 min 0 UV-I 0 W/m 3,2 km/h (1 Bft)
18.02.2015 01:10 3,4 C 92 % 1039,7 hPa 0,0 mm 0,0 km/h (0 Bft) N 0 0 min 0 UV-I 0 W/m 0,0 km/h (0 Bft)
18.02.2015 01:20 3,3 C 93 % 1039,6 hPa 0,0 mm 0,0 km/h (0 Bft) W 270 0 min 0 UV-I 0 W/m 1,6 km/h (1 Bft)
18.02.2015 01:30 3,3 C 93 % 1039,8 hPa 0,0 mm 0,0 km/h (0 Bft) N 0 0 min 0 UV-I 0 W/m 0,0 km/h (0 Bft)
18.02.2015 01:40 3,3 C 92 % 1039,8 hPa 0,0 mm 0,0 km/h (0 Bft) W 270 0 min 0 UV-I 0 W/m 3,2 km/h (1 Bft)
18.02.2015 01:50 3,2 C 92 % 1039,7 hPa 0,0 mm 0,0 km/h (0 Bft) N 0 0 min 0 UV-I 0 W/m 0,0 km/h (0 Bft)
18.02.2015 02:00 3,2 C 92 % 1039,6 hPa 0,0 mm 0,0 km/h (0 Bft) N 0 0 min 0 UV-I 0 W/m 0,0 km/h (0 Bft)
18.02.2015 02:10 3,1 C 92 % 1039,8 hPa 0,0 mm 0,0 km/h (0 Bft) W 270 0 min 0 UV-I 0 W/m 3,2 km/h (1 Bft)
18.02.2015 02:20 3,1 C 93 % 1039,7 hPa 0,0 mm 0,0 km/h (0 Bft) W 270 0 min 0 UV-I 0 W/m 1,6 km/h (1 Bft)
18.02.2015 02:30 3,0 C 93 % 1039,7 hPa 0,0 mm 0,0 km/h (0 Bft) W 270 0 min 0 UV-I 0 W/m 1,6 km/h (1 Bft)
18.02.2015 02:40 2,9 C 92 % 1039,7 hPa 0,0 mm 0,0 km/h (0 Bft) N 0 0 min 0 UV-I 0 W/m 0,0 km/h (0 Bft)
18.02.2015 02:50 2,9 C 92 % 1039,7 hPa 0,0 mm 0,0 km/h (0 Bft) W 270 0 min 0 UV-I 0 W/m 1,6 km/h (1 Bft)
18.02.2015 03:00 2,8 C 92 % 1039,8 hPa 0,0 mm 0,0 km/h (0 Bft) N 0 0 min 0 UV-I 0 W/m 0,0 km/h (0 Bft)
18.02.2015 03:10 2,8 C 93 % 1039,9 hPa 0,0 mm 0,0 km/h (0 Bft) N 0 0 min 0 UV-I 0 W/m 0,0 km/h (0 Bft)
18.02.2015 03:20 2,8 C 93 % 1039,9 hPa 0,0 mm 0,0 km/h (0 Bft) W 270 0 min 0 UV-I 0 W/m 3,2 km/h (1 Bft)
18.02.2015 03:30 2,8 C 93 % 1040,0 hPa 0,0 mm 0,0 km/h (0 Bft) W 270 0 min 0 UV-I 0 W/m 4,8 km/h (1 Bft)
18.02.2015 03:40 2,7 C 93 % 1040,1 hPa 0,0 mm 0,0 km/h (0 Bft) N 0 0 min 0 UV-I 0 W/m 0,0 km/h (0 Bft)
18.02.2015 03:50 2,7 C 93 % 1040,0 hPa 0,0 mm 0,0 km/h (0 Bft) N 0 0 min 0 UV-I 0 W/m 0,0 km/h (0 Bft)
18.02.2015 04:00 2,7 C 93 % 1040,1 hPa 0,0 mm 0,0 km/h (0 Bft) N 0 0 min 0 UV-I 0 W/m 0,0 km/h (0 Bft)
18.02.2015 04:10 2,7 C 93 % 1040,0 hPa 0,0 mm 0,0 km/h (0 Bft) N 0 0 min 0 UV-I 0 W/m 0,0 km/h (0 Bft)
18.02.2015 04:20 2,7 C 93 % 1040,1 hPa 0,0 mm 0,0 km/h (0 Bft) N 0 0 min 0 UV-I 0 W/m 0,0 km/h (0 Bft)
18.02.2015 04:30 2,7 C 93 % 1040,0 hPa 0,0 mm 0,0 km/h (0 Bft) W 270 0 min 0 UV-I 0 W/m 3,2 km/h (1 Bft)
18.02.2015 04:40 2,6 C 93 % 1040,0 hPa 0,0 mm 0,0 km/h (0 Bft) W 270 0 min 0 UV-I 0 W/m 3,2 km/h (1 Bft)
18.02.2015 04:50 2,6 C 93 % 1040,0 hPa 0,0 mm 0,0 km/h (0 Bft) N 0 0 min 0 UV-I 0 W/m 0,0 km/h (0 Bft)
18.02.2015 05:00 2,6 C 93 % 1039,9 hPa 0,0 mm 0,0 km/h (0 Bft) N 0 0 min 0 UV-I 0 W/m 0,0 km/h (0 Bft)
18.02.2015 05:10 2,6 C 93 % 1039,8 hPa 0,0 mm 0,0 km/h (0 Bft) N 0 0 min 0 UV-I 0 W/m 0,0 km/h (0 Bft)
18.02.2015 05:20 2,6 C 93 % 1039,7 hPa 0,0 mm 0,0 km/h (0 Bft) N 0 0 min 0 UV-I 0 W/m 0,0 km/h (0 Bft)
18.02.2015 05:30 2,6 C 93 % 1039,8 hPa 0,0 mm 0,0 km/h (0 Bft) N 0 0 min 0 UV-I 0 W/m 0,0 km/h (0 Bft)
18.02.2015 05:40 2,6 C 93 % 1039,9 hPa 0,0 mm 0,0 km/h (0 Bft) N 0 0 min 0 UV-I 0 W/m 0,0 km/h (0 Bft)
18.02.2015 05:50 2,5 C 93 % 1040,1 hPa 0,0 mm 0,0 km/h (0 Bft) N 0 0 min 0 UV-I 0 W/m 0,0 km/h (0 Bft)
18.02.2015 06:00 2,5 C 93 % 1040,1 hPa 0,0 mm 0,0 km/h (0 Bft) N 0 0 min 0 UV-I 0 W/m 0,0 km/h (0 Bft)
18.02.2015 06:10 2,5 C 93 % 1040,1 hPa 0,0 mm 0,0 km/h (0 Bft) N 0 0 min 0 UV-I 0 W/m 0,0 km/h (0 Bft)
18.02.2015 06:20 2,5 C 93 % 1040,2 hPa 0,0 mm 0,0 km/h (0 Bft) N 0 0 min 0 UV-I 0 W/m 0,0 km/h (0 Bft)
18.02.2015 06:30 2,5 C 93 % 1040,3 hPa 0,0 mm 0,0 km/h (0 Bft) W 270 0 min 0 UV-I 0 W/m 3,2 km/h (1 Bft)
18.02.2015 06:40 2,5 C 93 % 1040,3 hPa 0,0 mm 0,0 km/h (0 Bft) N 0 0 min 0 UV-I 0 W/m 0,0 km/h (0 Bft)
18.02.2015 06:50 2,5 C 93 % 1040,4 hPa 0,0 mm 0,0 km/h (0 Bft) N 0 0 min 0 UV-I 0 W/m 0,0 km/h (0 Bft)
18.02.2015 07:00 2,5 C 93 % 1040,3 hPa 0,0 mm 0,0 km/h (0 Bft) W 270 0 min 0 UV-I 0 W/m 1,6 km/h (1 Bft)
18.02.2015 07:10 2,5 C 93 % 1040,4 hPa 0,0 mm 0,0 km/h (0 Bft) N 0 0 min 0 UV-I 0 W/m 0,0 km/h (0 Bft)
18.02.2015 07:20 2,5 C 93 % 1040,6 hPa 0,0 mm 0,0 km/h (0 Bft) N 0 0 min 0 UV-I 0 W/m 0,0 km/h (0 Bft)
18.02.2015 07:30 2,5 C 93 % 1040,6 hPa 0,0 mm 0,0 km/h (0 Bft) N 0 0 min 0 UV-I 0 W/m 0,0 km/h (0 Bft)
18.02.2015 07:40 2,5 C 93 % 1040,6 hPa 0,0 mm 0,0 km/h (0 Bft) N 0 0 min 0 UV-I 0 W/m 0,0 km/h (0 Bft)
18.02.2015 07:50 2,5 C 93 % 1040,7 hPa 0,0 mm 0,0 km/h (0 Bft) N 0 0 min 0 UV-I 0 W/m 0,0 km/h (0 Bft)
18.02.2015 08:00 2,6 C 93 % 1040,7 hPa 0,0 mm 0,2 km/h (0 Bft) W 271 0 min 0 UV-I 7 W/m 3,2 km/h (1 Bft)
18.02.2015 08:10 2,6 C 93 % 1040,7 hPa 0,0 mm 0,0 km/h (0 Bft) W 271 0 min 0 UV-I 9 W/m 0,0 km/h (0 Bft)
18.02.2015 08:20 2,6 C 93 % 1040,8 hPa 0,0 mm 0,0 km/h (0 Bft) W 270 0 min 0 UV-I 14 W/m 4,8 km/h (1 Bft)
18.02.2015 08:30 2,6 C 93 % 1040,7 hPa 0,0 mm 0,0 km/h (0 Bft) W 270 0 min 0 UV-I 16 W/m 1,6 km/h (1 Bft)
18.02.2015 08:40 2,6 C 93 % 1040,8 hPa 0,0 mm 0,0 km/h (0 Bft) W 270 0 min 0 UV-I 14 W/m 1,6 km/h (1 Bft)
18.02.2015 08:50 2,6 C 93 % 1040,8 hPa 0,0 mm 0,0 km/h (0 Bft) W 270 0 min 0 UV-I 16 W/m 1,6 km/h (1 Bft)
18.02.2015 09:00 2,6 C 93 % 1040,9 hPa 0,0 mm 0,0 km/h (0 Bft) W 270 0 min 0 UV-I 18 W/m 1,6 km/h (1 Bft)
18.02.2015 09:10 2,6 C 93 % 1040,9 hPa 0,0 mm 0,0 km/h (0 Bft) W 270 0 min 0 UV-I 25 W/m 4,8 km/h (1 Bft)
18.02.2015 09:20 2,6 C 93 % 1040,9 hPa 0,0 mm 1,6 km/h (1 Bft) W 270 0 min 0 UV-I 26 W/m 6,4 km/h (2 Bft)
18.02.2015 09:30 2,6 C 93 % 1040,9 hPa 0,0 mm 0,0 km/h (0 Bft) W 270 0 min 0 UV-I 35 W/m 4,8 km/h (1 Bft)
18.02.2015 09:40 2,6 C 93 % 1040,9 hPa 0,0 mm 1,6 km/h (1 Bft) W 270 0 min 0 UV-I 51 W/m 6,4 km/h (2 Bft)
18.02.2015 09:50 2,7 C 93 % 1040,9 hPa 0,0 mm 1,6 km/h (1 Bft) W 270 0 min 0 UV-I 72 W/m 6,4 km/h (2 Bft)
18.02.2015 10:00 2,7 C 93 % 1041,0 hPa 0,0 mm 0,0 km/h (0 Bft) W 270 0 min 0 UV-I 88 W/m 3,2 km/h (1 Bft)
18.02.2015 10:10 2,7 C 93 % 1041,0 hPa 0,0 mm 0,0 km/h (0 Bft) W 270 0 min 1 UV-I 137 W/m 4,8 km/h (1 Bft)
18.02.2015 10:20 2,9 C 93 % 1040,8 hPa 0,0 mm 0,0 km/h (0 Bft) W 270 10 min 1 UV-I 216 W/m 1,6 km/h (1 Bft)
18.02.2015 10:30 3,2 C 92 % 1040,8 hPa 0,0 mm 0,0 km/h (0 Bft) W 270 0 min 1 UV-I 111 W/m 4,8 km/h (1 Bft)
18.02.2015 10:40 3,3 C 91 % 1040,7 hPa 0,0 mm 0,0 km/h (0 Bft) W 270 0 min 1 UV-I 135 W/m 3,2 km/h (1 Bft)
18.02.2015 10:50 3,6 C 91 % 1040,6 hPa 0,0 mm 1,6 km/h (1 Bft) W 270 0 min 1 UV-I 151 W/m 6,4 km/h (2 Bft)
18.02.2015 11:00 4,0 C 90 % 1040,5 hPa 0,0 mm 0,0 km/h (0 Bft) W 270 0 min 1 UV-I 165 W/m 1,6 km/h (1 Bft)
18.02.2015 11:10 4,0 C 88 % 1040,3 hPa 0,0 mm 0,0 km/h (0 Bft) W 270 0 min 1 UV-I 216 W/m 4,8 km/h (1 Bft)
18.02.2015 11:20 3,8 C 87 % 1040,3 hPa 0,0 mm 0,0 km/h (0 Bft) W 270 0 min 1 UV-I 204 W/m 3,2 km/h (1 Bft)
18.02.2015 11:30 3,9 C 86 % 1040,3 hPa 0,0 mm 1,6 km/h (1 Bft) W 270 10 min 1 UV-I 246 W/m 6,4 km/h (2 Bft)
18.02.2015 11:40 4,2 C 85 % 1040,2 hPa 0,0 mm 0,0 km/h (0 Bft) N 0 10 min 1 UV-I 260 W/m 0,0 km/h (0 Bft)
18.02.2015 11:50 4,3 C 85 % 1040,2 hPa 0,0 mm 0,0 km/h (0 Bft) W 270 0 min 1 UV-I 204 W/m 1,6 km/h (1 Bft)
18.02.2015 12:00 4,4 C 84 % 1040,1 hPa 0,0 mm 0,0 km/h (0 Bft) W 270 10 min 2 UV-I 445 W/m 4,8 km/h (1 Bft)
18.02.2015 12:10 4,5 C 83 % 1039,9 hPa 0,0 mm 0,0 km/h (0 Bft) W 270 10 min 2 UV-I 415 W/m 3,2 km/h (1 Bft)
18.02.2015 12:20 5,2 C 82 % 1039,6 hPa 0,0 mm 0,0 km/h (0 Bft) W 270 10 min 2 UV-I 394 W/m 8,0 km/h (2 Bft)
18.02.2015 12:30 5,5 C 79 % 1039,6 hPa 0,0 mm 0,0 km/h (0 Bft) W 270 10 min 2 UV-I 411 W/m 4,8 km/h (1 Bft)
18.02.2015 12:40 5,5 C 81 % 1039,6 hPa 0,0 mm 0,0 km/h (0 Bft) W 270 10 min 2 UV-I 432 W/m 3,2 km/h (1 Bft)
18.02.2015 12:50 5,7 C 80 % 1039,5 hPa 0,0 mm 1,6 km/h (1 Bft) W 270 10 min 2 UV-I 425 W/m 8,0 km/h (2 Bft)
18.02.2015 13:00 6,2 C 78 % 1039,4 hPa 0,0 mm 3,2 km/h (1 Bft) W 270 10 min 2 UV-I 411 W/m 8,0 km/h (2 Bft)
18.02.2015 13:10 6,1 C 77 % 1039,2 hPa 0,0 mm 1,6 km/h (1 Bft) W 270 10 min 2 UV-I 403 W/m 8,0 km/h (2 Bft)
18.02.2015 13:20 6,7 C 76 % 1038,8 hPa 0,0 mm 1,6 km/h (1 Bft) W 270 10 min 2 UV-I 422 W/m 8,0 km/h (2 Bft)
18.02.2015 13:30 6,6 C 75 % 1038,7 hPa 0,0 mm 1,6 km/h (1 Bft) W 270 10 min 2 UV-I 422 W/m 4,8 km/h (1 Bft)
18.02.2015 13:40 6,6 C 74 % 1038,7 hPa 0,0 mm 1,6 km/h (1 Bft) W 270 10 min 2 UV-I 431 W/m 6,4 km/h (2 Bft)
18.02.2015 13:50 6,7 C 73 % 1038,4 hPa 0,0 mm 1,6 km/h (1 Bft) W 270 10 min 2 UV-I 441 W/m 6,4 km/h (2 Bft)
18.02.2015 14:00 7,1 C 72 % 1038,3 hPa 0,0 mm 1,6 km/h (1 Bft) W 270 10 min 2 UV-I 445 W/m 6,4 km/h (2 Bft)
18.02.2015 14:10 7,4 C 69 % 1038,3 hPa 0,0 mm 1,6 km/h (1 Bft) W 270 10 min 1 UV-I 411 W/m 6,4 km/h (2 Bft)
18.02.2015 14:20 7,6 C 68 % 1038,2 hPa 0,0 mm 3,2 km/h (1 Bft) W 270 10 min 1 UV-I 396 W/m 8,0 km/h (2 Bft)
18.02.2015 14:30 7,4 C 69 % 1038,2 hPa 0,0 mm 0,0 km/h (0 Bft) W 270 10 min 1 UV-I 392 W/m 4,8 km/h (1 Bft)
18.02.2015 14:40 7,7 C 67 % 1037,9 hPa 0,0 mm 1,6 km/h (1 Bft) W 270 10 min 1 UV-I 381 W/m 9,7 km/h (2 Bft)
18.02.2015 14:50 8,0 C 65 % 1037,9 hPa 0,0 mm 1,6 km/h (1 Bft) W 270 10 min 1 UV-I 364 W/m 9,7 km/h (2 Bft)
18.02.2015 15:00 7,9 C 64 % 1037,5 hPa 0,0 mm 1,6 km/h (1 Bft) W 270 10 min 1 UV-I 360 W/m 8,0 km/h (2 Bft)
18.02.2015 15:10 8,0 C 63 % 1037,4 hPa 0,0 mm 1,6 km/h (1 Bft) W 270 10 min 1 UV-I 343 W/m 8,0 km/h (2 Bft)
18.02.2015 15:20 8,0 C 65 % 1037,2 hPa 0,0 mm 1,6 km/h (1 Bft) W 270 10 min 1 UV-I 316 W/m 6,4 km/h (2 Bft)
18.02.2015 15:30 7,9 C 66 % 1037,2 hPa 0,0 mm 1,6 km/h (1 Bft) W 270 10 min 1 UV-I 294 W/m 9,7 km/h (2 Bft)
18.02.2015 15:40 7,8 C 67 % 1037,1 hPa 0,0 mm 3,2 km/h (1 Bft) W 270 10 min 1 UV-I 276 W/m 9,7 km/h (2 Bft)
18.02.2015 15:50 7,7 C 66 % 1037,0 hPa 0,0 mm 3,2 km/h (1 Bft) W 270 10 min 1 UV-I 248 W/m 11,3 km/h (2 Bft)
18.02.2015 16:00 7,4 C 67 % 1036,8 hPa 0,0 mm 2,4 km/h (1 Bft) W 268 10 min 1 UV-I 192 W/m 6,4 km/h (2 Bft)
18.02.2015 16:10 7,5 C 69 % 1036,8 hPa 0,0 mm 1,6 km/h (1 Bft) W 270 10 min 1 UV-I 190 W/m 8,0 km/h (2 Bft)
18.02.2015 16:20 7,3 C 70 % 1036,6 hPa 0,0 mm 1,6 km/h (1 Bft) W 270 10 min 1 UV-I 141 W/m 9,7 km/h (2 Bft)
18.02.2015 16:30 7,2 C 71 % 1036,7 hPa 0,0 mm 1,6 km/h (1 Bft) W 270 10 min 0 UV-I 116 W/m 6,4 km/h (2 Bft)
18.02.2015 16:40 7,1 C 72 % 1036,5 hPa 0,0 mm 0,0 km/h (0 Bft) W 270 10 min 0 UV-I 90 W/m 4,8 km/h (1 Bft)
18.02.2015 16:50 6,9 C 72 % 1036,5 hPa 0,0 mm 0,0 km/h (0 Bft) W 270 0 min 0 UV-I 60 W/m 1,6 km/h (1 Bft)
18.02.2015 17:00 6,8 C 73 % 1036,4 hPa 0,0 mm 0,0 km/h (0 Bft) N 0 0 min 0 UV-I 42 W/m 0,0 km/h (0 Bft)
18.02.2015 17:10 6,6 C 73 % 1036,3 hPa 0,0 mm 0,0 km/h (0 Bft) N 0 0 min 0 UV-I 32 W/m 0,0 km/h (0 Bft)
18.02.2015 17:20 6,4 C 74 % 1036,3 hPa 0,0 mm 0,0 km/h (0 Bft) W 270 0 min 0 UV-I 21 W/m 1,6 km/h (1 Bft)
18.02.2015 17:30 6,2 C 74 % 1036,2 hPa 0,0 mm 0,0 km/h (0 Bft) W 270 10 min 0 UV-I 16 W/m 1,6 km/h (1 Bft)
18.02.2015 17:40 5,8 C 75 % 1036,3 hPa 0,0 mm 0,0 km/h (0 Bft) W 270 0 min 0 UV-I 12 W/m 1,6 km/h (1 Bft)
18.02.2015 17:50 5,4 C 76 % 1036,3 hPa 0,0 mm 0,0 km/h (0 Bft) N 0 0 min 0 UV-I 5 W/m 0,0 km/h (0 Bft)
18.02.2015 18:00 4,8 C 78 % 1036,3 hPa 0,0 mm 0,0 km/h (0 Bft) N 0 0 min 0 UV-I 0 W/m 0,0 km/h (0 Bft)
18.02.2015 18:10 4,4 C 79 % 1036,4 hPa 0,0 mm 0,0 km/h (0 Bft) N 0 0 min 0 UV-I 0 W/m 0,0 km/h (0 Bft)
18.02.2015 18:20 3,9 C 81 % 1036,3 hPa 0,0 mm 0,0 km/h (0 Bft) N 0 0 min 0 UV-I 0 W/m 0,0 km/h (0 Bft)
18.02.2015 18:30 3,7 C 82 % 1036,4 hPa 0,0 mm 0,0 km/h (0 Bft) N 0 0 min 0 UV-I 0 W/m 0,0 km/h (0 Bft)
18.02.2015 18:40 3,9 C 82 % 1036,2 hPa 0,0 mm 0,0 km/h (0 Bft) N 0 0 min 0 UV-I 0 W/m 0,0 km/h (0 Bft)
18.02.2015 18:50 3,9 C 83 % 1036,2 hPa 0,0 mm 0,0 km/h (0 Bft) N 0 0 min 0 UV-I 0 W/m 0,0 km/h (0 Bft)
18.02.2015 19:00 4,3 C 83 % 1036,1 hPa 0,0 mm 0,0 km/h (0 Bft) W 270 0 min 0 UV-I 0 W/m 4,8 km/h (1 Bft)
18.02.2015 19:10 4,4 C 82 % 1036,0 hPa 0,0 mm 1,6 km/h (1 Bft) W 270 0 min 0 UV-I 0 W/m 6,4 km/h (2 Bft)
18.02.2015 19:20 4,2 C 82 % 1036,1 hPa 0,0 mm 3,2 km/h (1 Bft) W 270 0 min 0 UV-I 0 W/m 9,7 km/h (2 Bft)
18.02.2015 19:30 3,9 C 82 % 1036,1 hPa 0,0 mm 1,6 km/h (1 Bft) W 270 0 min 0 UV-I 0 W/m 6,4 km/h (2 Bft)
18.02.2015 19:40 3,6 C 83 % 1036,1 hPa 0,0 mm 1,6 km/h (1 Bft) W 270 0 min 0 UV-I 0 W/m 9,7 km/h (2 Bft)
18.02.2015 19:50 3,3 C 83 % 1036,2 hPa 0,0 mm 1,6 km/h (1 Bft) W 270 0 min 0 UV-I 0 W/m 8,0 km/h (2 Bft)
18.02.2015 20:00 3,1 C 84 % 1036,1 hPa 0,0 mm 1,6 km/h (1 Bft) W 270 0 min 0 UV-I 0 W/m 6,4 km/h (2 Bft)
18.02.2015 20:10 2,9 C 84 % 1036,0 hPa 0,0 mm 1,6 km/h (1 Bft) W 270 0 min 0 UV-I 0 W/m 6,4 km/h (2 Bft)
18.02.2015 20:20 2,7 C 84 % 1036,0 hPa 0,0 mm 0,0 km/h (0 Bft) W 270 0 min 0 UV-I 0 W/m 3,2 km/h (1 Bft)
18.02.2015 20:30 2,4 C 85 % 1035,8 hPa 0,0 mm 0,0 km/h (0 Bft) W 270 0 min 0 UV-I 0 W/m 3,2 km/h (1 Bft)
18.02.2015 20:40 2,2 C 85 % 1035,7 hPa 0,0 mm 0,0 km/h (0 Bft) N 0 0 min 0 UV-I 0 W/m 0,0 km/h (0 Bft)
18.02.2015 20:50 1,9 C 86 % 1035,7 hPa 0,0 mm 0,0 km/h (0 Bft) N 0 0 min 0 UV-I 0 W/m 0,0 km/h (0 Bft)
18.02.2015 21:00 1,8 C 86 % 1035,8 hPa 0,0 mm 0,0 km/h (0 Bft) N 0 0 min 0 UV-I 0 W/m 0,0 km/h (0 Bft)
18.02.2015 21:10 1,8 C 87 % 1035,7 hPa 0,0 mm 0,0 km/h (0 Bft) N 0 0 min 0 UV-I 0 W/m 0,0 km/h (0 Bft)
18.02.2015 21:20 1,7 C 87 % 1035,7 hPa 0,0 mm 0,0 km/h (0 Bft) N 0 0 min 0 UV-I 0 W/m 0,0 km/h (0 Bft)
18.02.2015 21:30 1,7 C 87 % 1035,8 hPa 0,0 mm 0,0 km/h (0 Bft) N 0 0 min 0 UV-I 0 W/m 0,0 km/h (0 Bft)
18.02.2015 21:40 1,4 C 87 % 1035,7 hPa 0,0 mm 0,0 km/h (0 Bft) N 0 0 min 0 UV-I 0 W/m 0,0 km/h (0 Bft)
18.02.2015 21:50 1,1 C 87 % 1035,7 hPa 0,0 mm 0,0 km/h (0 Bft) N 0 0 min 0 UV-I 0 W/m 0,0 km/h (0 Bft)
18.02.2015 22:00 0,8 C 88 % 1035,6 hPa 0,0 mm 0,0 km/h (0 Bft) N 0 0 min 0 UV-I 0 W/m 0,0 km/h (0 Bft)
18.02.2015 22:10 0,6 C 88 % 1035,4 hPa 0,0 mm 0,0 km/h (0 Bft) N 0 0 min 0 UV-I 0 W/m 0,0 km/h (0 Bft)
18.02.2015 22:20 0,6 C 89 % 1035,3 hPa 0,0 mm 0,0 km/h (0 Bft) N 0 0 min 0 UV-I 0 W/m 0,0 km/h (0 Bft)
18.02.2015 22:30 0,4 C 89 % 1035,2 hPa 0,0 mm 0,0 km/h (0 Bft) N 0 0 min 0 UV-I 0 W/m 0,0 km/h (0 Bft)
18.02.2015 22:40 0,4 C 89 % 1035,0 hPa 0,0 mm 0,0 km/h (0 Bft) N 0 0 min 0 UV-I 0 W/m 0,0 km/h (0 Bft)
18.02.2015 22:50 0,0 C 89 % 1034,9 hPa 0,0 mm 0,0 km/h (0 Bft) N 0 0 min 0 UV-I 0 W/m 0,0 km/h (0 Bft)
18.02.2015 23:00 0,1 C 90 % 1034,8 hPa 0,0 mm 0,0 km/h (0 Bft) N 0 0 min 0 UV-I 0 W/m 0,0 km/h (0 Bft)
18.02.2015 23:10 0,2 C 90 % 1034,7 hPa 0,0 mm 0,0 km/h (0 Bft) W 270 0 min 0 UV-I 0 W/m 1,6 km/h (1 Bft)
18.02.2015 23:20 0,2 C 90 % 1034,6 hPa 0,0 mm 0,0 km/h (0 Bft) W 270 0 min 0 UV-I 0 W/m 1,6 km/h (1 Bft)
18.02.2015 23:30 0,3 C 90 % 1034,5 hPa 0,0 mm 0,0 km/h (0 Bft) N 0 0 min 0 UV-I 0 W/m 0,0 km/h (0 Bft)
18.02.2015 23:40 0,2 C 90 % 1034,5 hPa 0,0 mm 0,0 km/h (0 Bft) N 0 0 min 0 UV-I 0 W/m 0,0 km/h (0 Bft)
18.02.2015 23:50 0,2 C 90 % 1034,4 hPa 0,0 mm 0,0 km/h (0 Bft) N 0 0 min 0 UV-I 0 W/m 0,0 km/h (0 Bft)
_ Min-Zeit 22:50 15:10 23:50 - 00:00 - - - - - 00:00
Minimum _ -0,1 C 63 % 1034,4 hPa - 0,0 km/h (0 Bft) - - - - - 0,0 km/h (0 Bft)
_ Max-Zeit 15:10 01:20 10:00 00:00 13:00 - - 10:20 12:10 12:00 15:50
Maximum _ 8,2 C 93 % 1041,0 hPa 0,0 mm 3,2 km/h
W (1 Bft)
- - 10 min 2 UV-I 445 W/m 11,3 km/h
W (2 Bft)
Durchschnitt _ 3,7 C 86 % 1038,5 hPa #0,0 mm 0,4 km/h (0 Bft) W - #5:30 h 1 UV-I 211 W/m 2,8 km/h (1 Bft)